Lid_Strength_Index
6 6 5 5 4 4 3 3 2 2 2 2 2 1 1 1 2 2 2 2 2 1 1 1 0 0 1 1 1 1 1 1 1
6 6 5 5 4 3 3 3 3 2 2 2 2 2 1 1 1 1 2 2 2 1 1 1 0 0 0 0 1 1 1 1 1
7 6 5 5 4 4 3 3 2 2 2 2 2 1 1 1 1 1 1 1 2 2 1 1 1 1 1 0 0 1 1 1 2
7 6 5 5 4 3 3 2 2 3 4 5 3 3 2 1 1 1 1 1 1 1 2 2 1 1 1 1 1 0 1 1 2
6 5 5 5 4 4 3 4 4 3 4 2 2 1 1 1 1 2 2 1 1 1 1 1 1 1 1 1 1 1 1 1 1
6 6 5 5 4 4 4 3 3 4 3 2 1 1 1 1 2 1 2 1 2 1 1 1 1 2 2 1 1 1 1 1 1
6 6 5 6 5 4 4 3 3 3 2 2 2 3 2 4 4 3 1 1 1 1 1 1 2 2 2 1 1 1 1 1 1
7 7 7 6 6 6 5 4 3 3 2 2 2 2 2 2 2 1 2 1 1 1 1 1 1 2 2 2 2 1 1 1 1
7 8 7 6 4 4 4 4 4 3 3 2 2 2 2 2 2 2 2 2 2 1 1 1 1 1 2 2 1 2 2 1 1
6 6 6 6 6 6 5 4 4 4 3 2 2 2 2 2 2 2 2 2 2 2 2 1 2 1 1 1 2 5 4 2 1
7 6 5 5 5 4 4 4 4 4 3 3 3 3 2 2 2 2 2 2 2 2 2 2 2 2 1 2 3 5 5 3 2
6 5 5 4 4 4 4 4 4 3 3 3 3 3 3 2 2 2 2 2 2 2 2 2 2 2 1 2 2 5 5 4 2
4 4 4 4 4 3 3 3 3 3 4 4 3 3 3 2 2 2 2 3 2 3 3 2 2 2 1 3 3 5 4 4 3
4 4 4 4 4 4 4 3 4 4 4 4 3 2 2 2 2 2 2 2 3 3 3 3 3 2 1 2 2 2 4 4 2
5 5 4 3 4 4 4 3 4 4 4 3 2 2 2 2 2 1 1 2 2 3 3 4 4 4 4 3 2 4 5 6 4
5 4 4 4 3 3 3 3 4 5 3 3 3 3 3 2 2 2 2 2 2 3 3 4 4 4 4 4 4 4 5 5 5
5 5 4 3 4 4 4 3 3 4 3 2 3 3 2 2 2 2 2 3 2 3 3 3 3 3 3 4 4 4 4 5 4
5 5 4 4 3 3 3 3 3 2 2 3 3 2 2 2 2 2 2 3 2 2 2 2 3 3 2 3 4 4 5 5 5
5 4 4 3 3 3 3 3 3 3 2 2 2 3 3 3 3 2 2 3 3 6 6 7 9 10 7 2 6 9 10 11 11
4 4 4 4 4 4 3 3 3 2 2 2 3 3 3 3 3 3 3 3 4 4 4 8 9 10 12 12 8 11 11 12 13